Terminal Aerodrome Forecast
Issued by NWS

Home | Current Version | Previous Version | Text Only | Print | Product List | Glossary On
Versions: 1 2 3 4 5 6 7 8 9 10 11 12 13 14 15 16 17 18 19 20 21 22 23 24 25 26 27 28 29 30 31 32 33 34 35
000
FTUS41 KOKX 181004 AAB
TAFTEB
TAF AMD
KTEB 181004Z 1810/1906 36005KT 2SM BR OVC004
     FM181400 VRB04KT 4SM BR OVC006
     FM181800 34007KT 5SM BR BKN010 OVC020
     FM182200 VRB04KT P6SM BKN020 OVC035=

USA.gov is the U.S. government's official web portal to all federal, state and local government web resources and services.